User: anonymous   Login
Location: Caltech
(34.1382°N, 118.1253°W)
Time: 17:41:21
(UTC-08:00)
Language:

PANSAT - Orbit

View from above orbital plane
View from above orbital plane
View from above satellite
View from above satellite

Ground track
Ground track

The orbit data is extracted from the following two-line orbital elements,

1 25520U 98064B   17050.22956917  .00000859  00000-0  22516-4 0  9997
2 25520  28.4588  67.6712 0005356 134.4483 225.6550 15.28196488 16224
Epoch (UTC): 19 February 2017 05:30:34
Eccentricity: 0.0005356
inclination: 28.4588°
perigee height: 477 km
apogee height: 485 km
right ascension of ascending node: 67.6712°
argument of perigee: 134.4483°
revolutions per day: 15.28196488
mean anomaly at epoch: 225.6550°
orbit number at epoch: 1622

The dashed part of the orbit path shows where the satellite is in the earth's shadow,  

DLR